Location: Gad�tanya
(48.0500°N, 20.8500°E)
Time: 22:52:39
(UTC+00:00)

Cosmos-2242 - Pass Details

Date: 05 July 2020
Orbit: 592 x 616 km, 82.5° (Epoch: 05 August)

Event Time Altitude Azimuth Distance (km) Brightness Sun altitude
Rises 19:10:58 0° 356° (N) 2,869 7.3 -5.0°
Reaches altitude 10° 19:13:17 10° 3° (N) 1,965 6.3 -5.3°
Maximum altitude 19:17:26 43° 75° (ENE) 858 3.6 -5.8°
Drops below altitude 10° 19:21:35 10° 148° (SSE) 1,964 5.0 -6.3°
Enters shadow 19:22:14 - 150° (SSE) 2,211 5.3 -6.4°
